Flag for Germany Weather past 2 weeks in Neumünster, Schleswig-Holstein, Germany

Now
48 °F

Passing clouds.


Feels Like: 48 °F
Forecast: 44 / 59 °F
Wind: 2 mph from West

Location: Itzehoe

Current Time: May 30, 2015 at 10:56:51 PM

Latest Report: May 30, 2015 at 10:00 PM


Visibility: 37 mi

Pressure: 29.93 "Hg

Humidity: 82%

Dew point: 43 °F

Location of NeumünsterLocation

Historic Weather in Neumünster — Graph

°F

Neumünster temperature yesterday

Maximum temperature yesterday: 59 °F (at 3:00 PM)
Minimum temperature yesterday: 41 °F (at 6:00 AM)
Average temperature yesterday: 50 °F

Past Weeks' High & Low Weather Summary

 TemperatureHumidityPressure
High65 °F (May 22, 4:00 PM)100% (May 22, 3:00 AM)30.29 "Hg (May 22, 3:00 AM)
Low38 °F (May 24, 4:00 AM)45% (May 24, 6:00 PM)29.57 "Hg (May 19, 1:00 AM)
Average51 °F77%29.99 "Hg
* Reported May 15 9:00 PM — May 30 9:00 PM, Neumünster, Weather by CustomWeather, © 2015

Note: Actual official high and low records may vary slightly from our data, if they occured in-between our weather recording intervals... More about our weather records

Advertising

Neumünster weather history for previous 24 hours

 ConditionsComfort  
Time TempWeatherWind HumidityBarometerVisibility
9:00 PM
Sat, May 30
51 °FPassing clouds.5 mph72%29.92 "Hg43 mi
7:00 PM51 °FPartly sunny.5 mph75%29.90 "Hg14 mi
6:00 PM53 °FPartly sunny.6 mph65%29.88 "Hg19 mi
4:00 PM53 °FOvercast.5 mph65%29.84 "Hg25 mi
3:00 PM54 °FOvercast.5 mph68%29.83 "Hg22 mi
1:00 PM54 °FPartly sunny.5 mph64%29.79 "Hg16 mi
12:00 PM51 °FPartly sunny.6 mph71%29.78 "Hg25 mi
10:00 AM52 °FPartly sunny.6 mph72%29.74 "Hg28 mi
9:00 AM50 °FOvercast.3 mph81%29.72 "Hg25 mi
7:00 AM47 °FOvercast.5 mph88%29.67 "Hg7 mi
6:00 AM47 °FOvercast.3 mph93%29.66 "Hg28 mi
4:00 AM48 °FOvercast.7 mph88%29.62 "Hg4 mi
3:00 AM50 °FOvercast.7 mph76%29.61 "Hg19 mi
1:00 AM51 °FOvercast.6 mph78%29.61 "Hg19 mi
12:00 AM50 °FOvercast.2 mph94%29.62 "Hg3 mi
10:00 PM
Fri, May 29
49 °FOvercast.2 mph95%29.65 "Hg6 mi
Weather by CustomWeather, © 2015

See weather overviewHow to use our weather pages